Regional Weather Roundup
Issued by NWS

Home | Current Version | Previous Version | Graphics & Text | Print | Product List | Glossary On
Versions: 1 2 3 4 5 6 7 8 9 10 11 12 13 14 15 16 17 18 19 20 21 22 23 24 25 26 27 28 29 30 31 32 33 34 35 36 37 38 39 40 41 42 43 44 45 46 47 48 49 50
000
ASUS43 KDMX 240707
RWRIA

WEATHER ROUNDUP FOR IOWA
NATIONAL WEATHER SERVICE DES MOINES IA
100 AM CST MON NOV 24 2014

NOTE: "FAIR" INDICATES FEW OR NO CLOUDS BELOW 12,000 FEET WITH NO
SIGNIFICANT WEATHER AND/OR OBSTRUCTIONS TO VISIBILITY.

* - THESE STATIONS ARE NOT NWS STATIONS...THUS NOT UNDER NWS
QUALITY CONTROL.  THEY ALSO DO NOT REPORT WEATHER SUCH
AS PRECIPITATION OR FOG.

IAZ001>003-012>014-020>022-031>034-043>046-240800-
   NORTHWEST IOWA

CITY           SKY/WX    TMP DP  RH WIND       PRES   REMARKS
CARROLL *      CLOUDY    30  25  80 NW31      29.44S WCI  15
CHEROKEE *     CLOUDY    27  21  80 NW13G25   29.48S WCI  16
DENISON *      CLOUDY    28  21  74 NW26G35   29.46F WCI  13
LE MARS *      CLOUDY    27  21  80 NW20G28   29.52F WCI  13
ORANGE CITY *  CLOUDY    27  18  69 NW22G31   29.48F WCI  12
SHELDON *      CLOUDY    25  19  80 NW22G31   29.46F WCI  10
SIOUX CITY     CLOUDY    29  20  69 NW23G37   29.52S WCI  15
SPENCER        CLOUDY    28  20  71 NW22G35   29.44F WCI  14
STORM LAKE *   CLOUDY    27  21  80 NW24G32   29.45S WCI  12
$$

IAZ055>058-069>071-079>083-090>094-240800-
   SOUTHWEST IOWA

CITY           SKY/WX    TMP DP  RH WIND       PRES   REMARKS
ATLANTIC *     CLOUDY    32  25  74 NW23G31   29.46F WCI  19
AUDUBON *      MOCLDY    30  21  69 NW15G24   29.45S WCI  19
CLARINDA *     CLOUDY    34  27  75 NW21G29   29.50F WCI  22
COUNCIL BLFS * CLOUDY    32  23  69 NW23G32   29.49S WCI  19
CRESTON *      CLOUDY    32  27  80 NW20G33   29.43F WCI  20
HARLAN  *      CLOUDY    30  23  74 NW21G29   29.50F WCI  17
LAMONI         CLOUDY    34  27  75 NW25G35   29.41R WCI  21
RED OAK *      CLOUDY    34  25  69 NW18G35   29.50S WCI  23
SHENANDOAH *   CLOUDY    34  27  75 NW16G23   29.52S WCI  23
$$

IAZ047>049-059>061-072>074-084-240800-
   CENTRAL IOWA

CITY           SKY/WX    TMP DP  RH WIND       PRES   REMARKS
AMES           CLOUDY    33  26  75 NW21G28   29.37S WCI  21
ANKENY *       CLOUDY    34  28  80 NW21G29   29.37S WCI  22
CHARITON *     CLOUDY    36  30  80 NW24G31   29.37R WCI  24
DES MOINES     CLOUDY    34  27  75 NW25G35   29.38S WCI  21
GRINNELL*      LGT SNOW  32  32 100 NW23G29   29.31F WCI  19
KNOXVILLE *    CLOUDY    36  30  80 NW25G32   29.34S WCI  23
MARSHALLTOWN   CLOUDY    33  31  92 NW25G31   29.32S WCI  20
PELLA *        LGT RAIN  34  32  93 NW16G22   29.34F WCI  23
PERRY *        CLOUDY    32  28  86 NW21G32   29.41S WCI  20
$$

IAZ004>006-015-016-023>025-035-036-240800-
   NORTH CENTRAL IOWA

CITY           SKY/WX    TMP DP  RH WIND       PRES   REMARKS
ALGONA *       CLOUDY    30  25  80 NW21G30   29.39F WCI  17
CLARION *      CLOUDY    30  27  86 NW30G37   29.36F WCI  15
ESTHERVILLE    CLOUDY    26  22  84 NW26G38   29.42S WCI  10
FORT DODGE *   CLOUDY    30  23  74 NW13G24   29.40F WCI  20
MASON CITY     LGT SNOW  30  26  85 NW30G39   29.33S FOG     WCI  15
FOREST CITY *  CLOUDY    30  28  93 NW21G32   29.34F WCI  17
IOWA FALLS *   CLOUDY    32  28  86 NW22G32   29.34F WCI  19
$$

IAZ007>011-017>019-026>030-037>042-050>054-066-240800-
   NORTHEAST IOWA

CITY           SKY/WX    TMP DP  RH WIND       PRES   REMARKS
CEDAR RAPIDS   CLOUDY    36  35  96 NW28G37   29.23S FOG     WCI  23
CHARLES CITY * MIX PCPN  32  32 100 NW23G31   29.28S WCI  19
CLINTON *      CLOUDY    45  41  87 NW18      29.15S
DECORAH *      CLOUDY    37  36  93 NW16      29.20S WCI  28
DUBUQUE        CLOUDY    40  40 100 NW18      29.14S FOG     WCI  31
MONTICELLO *   MIX PCPN  39  39 100 NW20G26   29.18S WCI  30
OELWEIN *      CLOUDY    34  34 100 NW21G33   29.24S WCI  22
WATERLOO       LGT SNOW  32  31  96 NW20G30   29.26F FOG     WCI  20
$$

IAZ064-065-067-068-078-240800-
   EAST CENTRAL IOWA

CITY           SKY/WX    TMP DP  RH WIND       PRES   REMARKS
DAVENPORT      CLOUDY    41  39  93 NW18G32   29.15F FOG
IOWA CITY      CLOUDY    37  37 100 NW23G30   29.24S WCI  26
MT. PLEASANT * LGT RAIN  37  37 100 NW16G31   29.25R WCI  28
MUSCATINE *    CLOUDY    41  37  87 NW20G28   29.21S
QUAD CITIES    CLOUDY    43  41  93 W18G26    29.16R
$$

IAZ062-063-075>077-085>089-095>099-240800-
   SOUTHEAST IOWA

CITY           SKY/WX    TMP DP  RH WIND       PRES   REMARKS
BURLINGTON     CLOUDY    39  38  96 NW23G31   29.21S FOG     WCI  28
FAIRFIELD *    LGT RAIN  36  34  93 NW20G31   29.27S WCI  25
FORT MADISON * RAIN      41  39  93 NW18G29   29.25R
KEOKUK *       RAIN      39  39 100 NW20G32   29.24F WCI  30
OSKALOOSA *    DRIZZLE   34  34 100 NW20G26   29.31S WCI  22
CENTERVILLE *  FLURRIES  32  32 100 NW12G18   29.36S WCI  23
OTTUMWA        CLOUDY    36  33  89 NW21G28   29.31S WCI  25
WASHINGTON *   MIX PCPN  37  37 100 NW22G31   29.25S WCI  27
$$

ABBREVIATIONS USED IN REMARKS
   TC - TEMPERATURES IN CELSIUS
  WCI - WIND CHILL INDEX
   HX - HEAT INDEX
  VSB - VISIBILITY
$$




USA.gov is the U.S. government's official web portal to all federal, state and local government web resources and services.